ATS 1

导读 | 星芒AI

ATS 1(Applications Technology Satellite 1)是美国国家航空航天局(NASA)于1966年发射的首颗应用技术卫星。该卫星主要用于测试通信、气象观测和导航等新技术。ATS 1 成功验证了地球同步轨道的可行性,为后来的通信卫星发展奠定了基础。它携带了多种实验设备,包括转发器、气象摄像机和数据中继系统。尽管运行时间有限,ATS 1 在推动卫星技术和空间应用方面发挥了重要作用,标志着现代通信卫星时代的开端。

基本信息
目录编号:
2608
目录名称:
ATS 1
国际标识:
1966-110A
轨道中心:
EARTH
卫星名称:
ATS 1
卫星全名:
--
卫星状态:
在轨 (已飞行21556 天)
发射日期:
1966-12-07 UTC
国别 :
美国 (US)
星等 :
--
轨道信息
数据来源 国际轨道数据
星历时间: 2025-12-13T04:08:36+0800
13小时前
查看轨道信息
半长轴: 42135.85km
偏心率: 0.0007868
轨道倾角: 4.507°
近地点辐角 183.959°
升交点赤经 71.715°
平近点角 239.228°
近地点: 35724.562km
远地点: 35790.868km
周期: 1434.622分钟
每日圈数: 1.003749
详细信息
使用方式:
暂无
2D轨道图
3D轨道图
轨道高度分析图
轨道倾角分析图
轨道综合分析图
查看轨道综合分析图